Time,TemperatureF,DewpointF,PressureIn,WindDirection,WindDirectionDegrees,WindSpeedMPH,WindSpeedGustMPH,Humidity,HourlyPrecipIn,Conditions,Clouds,dailyrainin,SoftwareType,DateUTC
2013-05-17 00:04:00,67.6,47.2,29.90,East,94,6.0,8.0,48,0.00,,,0.00,Wunderground v.1.15,2013-05-17 05:04:00,
2013-05-17 00:10:00,67.4,48.1,29.91,SE,125,7.0,7.0,50,0.00,,,0.00,Wunderground v.1.15,2013-05-17 05:10:00,
2013-05-17 00:16:00,67.3,49.1,29.90,East,99,5.0,7.0,52,0.00,,,0.00,Wunderground v.1.15,2013-05-17 05:16:00,
2013-05-17 00:22:00,67.2,49.0,29.91,East,99,5.0,5.0,52,0.00,,,0.00,Wunderground v.1.15,2013-05-17 05:22:00,
2013-05-17 00:28:00,67.2,47.9,29.91,East,98,3.0,7.0,50,0.00,,,0.00,Wunderground v.1.15,2013-05-17 05:28:00,
2013-05-17 00:34:00,67.2,49.0,29.91,ESE,108,4.0,6.0,52,0.00,,,0.00,Wunderground v.1.15,2013-05-17 05:34:00,
2013-05-17 00:40:00,67.1,49.4,29.90,East,101,4.0,5.0,53,0.00,,,0.00,Wunderground v.1.15,2013-05-17 05:40:00,
2013-05-17 00:46:00,67.0,50.3,29.90,ENE,76,4.0,5.0,55,0.00,,,0.00,Wunderground v.1.15,2013-05-17 05:46:00,
2013-05-17 00:52:00,66.8,51.1,29.90,East,88,4.0,8.0,57,0.00,,,0.00,Wunderground v.1.15,2013-05-17 05:52:00,
2013-05-17 01:02:00,66.6,51.4,29.90,East,100,6.0,6.0,58,0.00,,,0.00,Wunderground v.1.15,2013-05-17 06:02:00,
2013-05-17 01:08:00,66.3,51.5,29.90,ESE,106,4.0,6.0,59,0.00,,,0.00,Wunderground v.1.15,2013-05-17 06:08:00,
2013-05-17 01:14:00,66.1,51.8,29.90,East,97,5.0,5.0,60,0.00,,,0.00,Wunderground v.1.15,2013-05-17 06:14:00,
2013-05-17 01:20:00,65.9,51.6,29.89,East,97,6.0,7.0,60,0.00,,,0.00,Wunderground v.1.15,2013-05-17 06:20:00,
2013-05-17 01:26:00,65.8,51.1,29.90,East,86,6.0,6.0,59,0.00,,,0.00,Wunderground v.1.15,2013-05-17 06:26:00,
2013-05-17 01:32:00,65.6,50.9,29.89,East,89,6.0,6.0,59,0.00,,,0.00,Wunderground v.1.15,2013-05-17 06:32:00,
2013-05-17 01:38:00,65.2,50.5,29.89,East,97,4.0,6.0,59,0.00,,,0.00,Wunderground v.1.15,2013-05-17 06:38:00,
2013-05-17 01:44:00,65.0,50.3,29.89,ESE,107,3.0,3.0,59,0.00,,,0.00,Wunderground v.1.15,2013-05-17 06:44:00,
2013-05-17 01:50:00,65.0,50.3,29.89,ESE,107,2.0,3.0,59,0.00,,,0.00,Wunderground v.1.15,2013-05-17 06:50:00,
2013-05-17 01:56:00,64.9,50.2,29.89,ESE,103,2.0,4.0,59,0.00,,,0.00,Wunderground v.1.15,2013-05-17 06:56:00,
2013-05-17 02:02:00,64.6,50.4,29.89,East,101,2.0,2.0,60,0.00,,,0.00,Wunderground v.1.15,2013-05-17 07:02:00,
2013-05-17 02:08:00,64.3,50.1,29.89,East,100,3.0,3.0,60,0.00,,,0.00,Wunderground v.1.15,2013-05-17 07:08:00,
2013-05-17 02:14:00,64.2,50.0,29.90,East,100,3.0,5.0,60,0.00,,,0.00,Wunderground v.1.15,2013-05-17 07:14:00,
2013-05-17 02:20:00,64.1,49.9,29.89,East,100,3.0,5.0,60,0.00,,,0.00,Wunderground v.1.15,2013-05-17 07:20:00,
2013-05-17 02:26:00,64.1,50.4,29.89,East,100,3.0,5.0,61,0.00,,,0.00,Wunderground v.1.15,2013-05-17 07:26:00,
2013-05-17 02:32:00,64.0,49.8,29.89,East,100,3.0,3.0,60,0.00,,,0.00,Wunderground v.1.15,2013-05-17 07:32:00,
2013-05-17 02:38:00,63.9,50.2,29.90,East,100,2.0,3.0,61,0.00,,,0.00,Wunderground v.1.15,2013-05-17 07:38:00,
2013-05-17 02:44:00,63.8,50.1,29.90,East,101,2.0,3.0,61,0.00,,,0.00,Wunderground v.1.15,2013-05-17 07:44:00,
2013-05-17 02:50:00,63.6,49.9,29.90,East,101,2.0,3.0,61,0.00,,,0.00,Wunderground v.1.15,2013-05-17 07:50:00,
2013-05-17 02:56:00,63.4,50.1,29.90,East,101,1.0,2.0,62,0.00,,,0.00,Wunderground v.1.15,2013-05-17 07:56:00,
2013-05-17 03:02:00,63.1,50.3,29.90,East,101,1.0,1.0,63,0.00,,,0.00,Wunderground v.1.15,2013-05-17 08:02:00,
2013-05-17 03:08:00,62.9,50.1,29.90,East,101,1.0,2.0,63,0.00,,,0.00,Wunderground v.1.15,2013-05-17 08:08:00,
2013-05-17 03:14:00,62.6,49.8,29.90,East,101,1.0,1.0,63,0.00,,,0.00,Wunderground v.1.15,2013-05-17 08:14:00,
2013-05-17 03:20:00,62.5,50.2,29.90,East,100,1.0,1.0,64,0.00,,,0.00,Wunderground v.1.15,2013-05-17 08:20:00,
2013-05-17 03:26:00,62.3,50.0,29.90,East,101,2.0,3.0,64,0.00,,,0.00,Wunderground v.1.15,2013-05-17 08:26:00,
2013-05-17 03:32:00,62.1,49.8,29.90,East,100,3.0,5.0,64,0.00,,,0.00,Wunderground v.1.15,2013-05-17 08:32:00,
2013-05-17 03:38:00,61.9,49.2,29.91,East,100,3.0,5.0,63,0.00,,,0.00,Wunderground v.1.15,2013-05-17 08:38:00,
2013-05-17 03:44:00,61.8,49.1,29.91,ESE,116,2.0,3.0,63,0.00,,,0.00,Wunderground v.1.15,2013-05-17 08:44:00,
2013-05-17 03:50:00,61.6,48.9,29.91,ESE,114,2.0,2.0,63,0.00,,,0.00,Wunderground v.1.15,2013-05-17 08:50:00,
2013-05-17 03:56:00,61.6,49.3,29.91,ESE,114,1.0,4.0,64,0.00,,,0.00,Wunderground v.1.15,2013-05-17 08:56:00,
2013-05-17 04:02:00,61.6,49.3,29.91,ESE,114,1.0,1.0,64,0.00,,,0.00,Wunderground v.1.15,2013-05-17 09:02:00,
2013-05-17 04:08:00,61.4,49.1,29.91,ESE,114,2.0,2.0,64,0.00,,,0.00,Wunderground v.1.15,2013-05-17 09:08:00,
2013-05-17 04:14:00,61.3,49.0,29.90,SE,130,2.0,3.0,64,0.00,,,0.00,Wunderground v.1.15,2013-05-17 09:14:00,
2013-05-17 04:20:00,61.1,49.2,29.90,ESE,123,2.0,3.0,65,0.00,,,0.00,Wunderground v.1.15,2013-05-17 09:20:00,
2013-05-17 04:26:00,60.7,49.3,29.90,SE,129,2.0,4.0,66,0.00,,,0.00,Wunderground v.1.15,2013-05-17 09:26:00,
2013-05-17 04:32:00,60.4,49.0,29.90,SE,128,2.0,2.0,66,0.00,,,0.00,Wunderground v.1.15,2013-05-17 09:32:00,
2013-05-17 04:38:00,60.2,48.8,29.90,SE,128,1.0,2.0,66,0.00,,,0.00,Wunderground v.1.15,2013-05-17 09:38:00,
2013-05-17 04:44:00,60.0,49.0,29.90,SE,128,1.0,2.0,67,0.00,,,0.00,Wunderground v.1.15,2013-05-17 09:44:00,
2013-05-17 04:50:00,59.8,48.8,29.90,SE,128,1.0,2.0,67,0.00,,,0.00,Wunderground v.1.15,2013-05-17 09:50:00,
2013-05-17 04:56:00,59.7,48.7,29.91,SE,128,1.0,3.0,67,0.00,,,0.00,Wunderground v.1.15,2013-05-17 09:56:00,
2013-05-17 05:02:00,59.6,49.0,29.91,SE,128,1.0,2.0,68,0.00,,,0.00,Wunderground v.1.15,2013-05-17 10:02:00,
2013-05-17 05:08:00,59.4,49.2,29.91,SE,128,1.0,2.0,69,0.00,,,0.00,Wunderground v.1.15,2013-05-17 10:08:00,
2013-05-17 05:14:00,59.4,49.2,29.91,SE,128,1.0,2.0,69,0.00,,,0.00,Wunderground v.1.15,2013-05-17 10:14:00,
2013-05-17 05:20:00,59.1,49.3,29.92,SE,128,1.0,1.0,70,0.00,,,0.00,Wunderground v.1.15,2013-05-17 10:20:00,
2013-05-17 05:26:00,58.9,48.4,29.92,SE,128,0.0,1.0,68,0.00,,,0.00,Wunderground v.1.15,2013-05-17 10:26:00,
2013-05-17 05:32:00,58.9,48.7,29.92,SE,128,0.0,0.0,69,0.00,,,0.00,Wunderground v.1.15,2013-05-17 10:32:00,
2013-05-17 05:38:00,58.9,48.7,29.92,SE,128,0.0,0.0,69,0.00,,,0.00,Wunderground v.1.15,2013-05-17 10:38:00,
2013-05-17 05:44:00,58.8,49.0,29.92,SE,128,0.0,0.0,70,0.00,,,0.00,Wunderground v.1.15,2013-05-17 10:44:00,
2013-05-17 05:50:00,58.7,49.3,29.93,SE,128,0.0,0.0,71,0.00,,,0.00,Wunderground v.1.15,2013-05-17 10:50:00,
2013-05-17 05:56:00,58.5,48.7,29.93,East,93,1.0,3.0,70,0.00,,,0.00,Wunderground v.1.15,2013-05-17 10:56:00,
2013-05-17 06:02:00,58.6,48.5,29.93,East,93,1.0,1.0,69,0.00,,,0.00,Wunderground v.1.15,2013-05-17 11:02:00,
2013-05-17 06:08:00,58.5,48.0,29.93,East,93,1.0,1.0,68,0.00,,,0.00,Wunderground v.1.15,2013-05-17 11:08:00,
2013-05-17 06:14:00,58.4,48.3,29.94,East,93,0.0,0.0,69,0.00,,,0.00,Wunderground v.1.15,2013-05-17 11:14:00,
2013-05-17 06:20:00,58.4,48.7,29.94,East,93,0.0,0.0,70,0.00,,,0.00,Wunderground v.1.15,2013-05-17 11:20:00,
2013-05-17 06:26:00,58.2,48.5,29.94,East,93,0.0,0.0,70,0.00,,,0.00,Wunderground v.1.15,2013-05-17 11:26:00,
2013-05-17 06:32:00,58.5,48.7,29.94,East,93,0.0,1.0,70,0.00,,,0.00,Wunderground v.1.15,2013-05-17 11:32:00,
2013-05-17 06:38:00,58.8,48.6,29.94,East,93,1.0,1.0,69,0.00,,,0.00,Wunderground v.1.15,2013-05-17 11:38:00,
2013-05-17 06:44:00,59.3,49.1,29.94,East,93,0.0,0.0,69,0.00,,,0.00,Wunderground v.1.15,2013-05-17 11:44:00,
2013-05-17 06:50:00,59.8,49.6,29.95,East,93,1.0,2.0,69,0.00,,,0.00,Wunderground v.1.15,2013-05-17 11:50:00,
2013-05-17 06:56:00,60.4,49.4,29.95,East,93,1.0,2.0,67,0.00,,,0.00,Wunderground v.1.15,2013-05-17 11:56:00,
2013-05-17 07:02:00,61.1,50.1,29.95,East,93,1.0,2.0,67,0.00,,,0.00,Wunderground v.1.15,2013-05-17 12:02:00,
2013-05-17 07:08:00,61.8,50.3,29.95,East,93,2.0,3.0,66,0.00,,,0.00,Wunderground v.1.15,2013-05-17 12:08:00,
2013-05-17 07:14:00,62.3,50.4,29.95,East,93,3.0,3.0,65,0.00,,,0.00,Wunderground v.1.15,2013-05-17 12:14:00,
2013-05-17 07:20:00,62.9,50.1,29.95,East,93,3.0,3.0,63,0.00,,,0.00,Wunderground v.1.15,2013-05-17 12:20:00,
2013-05-17 07:26:00,63.4,50.6,29.95,East,93,3.0,5.0,63,0.00,,,0.00,Wunderground v.1.15,2013-05-17 12:26:00,
2013-05-17 07:32:00,63.7,52.1,29.95,East,93,2.0,2.0,66,0.00,,,0.00,Wunderground v.1.15,2013-05-17 12:32:00,
2013-05-17 07:38:00,63.8,52.2,29.95,East,93,1.0,2.0,66,0.00,,,0.00,Wunderground v.1.15,2013-05-17 12:38:00,
2013-05-17 07:44:00,63.8,52.2,29.95,East,93,0.0,1.0,66,0.00,,,0.00,Wunderground v.1.15,2013-05-17 12:44:00,
2013-05-17 07:50:00,64.0,52.8,29.95,East,94,0.0,0.0,67,0.00,,,0.00,Wunderground v.1.15,2013-05-17 12:50:00,
2013-05-17 07:56:00,64.4,53.6,29.95,East,94,0.0,0.0,68,0.00,,,0.00,Wunderground v.1.15,2013-05-17 12:56:00,
2013-05-17 08:02:00,65.0,54.2,29.95,East,94,1.0,2.0,68,0.00,,,0.00,Wunderground v.1.15,2013-05-17 13:02:00,
2013-05-17 08:08:00,65.3,55.3,29.96,East,94,1.0,2.0,70,0.00,,,0.00,Wunderground v.1.15,2013-05-17 13:08:00,
2013-05-17 08:14:00,65.4,54.6,29.95,ESE,107,1.0,1.0,68,0.00,,,0.00,Wunderground v.1.15,2013-05-17 13:14:00,
2013-05-17 08:20:00,65.6,55.5,29.96,ESE,107,1.0,3.0,70,0.00,,,0.00,Wunderground v.1.15,2013-05-17 13:20:00,
2013-05-17 08:26:00,65.7,56.0,29.96,ESE,107,0.0,1.0,71,0.00,,,0.00,Wunderground v.1.15,2013-05-17 13:26:00,
2013-05-17 08:32:00,66.0,56.7,29.96,ESE,107,0.0,0.0,72,0.00,,,0.00,Wunderground v.1.15,2013-05-17 13:32:00,
2013-05-17 08:38:00,66.4,58.2,29.96,ESE,107,0.0,1.0,75,0.00,,,0.00,Wunderground v.1.15,2013-05-17 13:38:00,
2013-05-17 08:44:00,66.8,58.6,29.96,ESE,107,0.0,0.0,75,0.00,,,0.00,Wunderground v.1.15,2013-05-17 13:44:00,
2013-05-17 08:50:00,67.2,58.6,29.95,ESE,107,0.0,2.0,74,0.00,,,0.00,Wunderground v.1.15,2013-05-17 13:50:00,
2013-05-17 08:56:00,67.6,58.6,29.96,ESE,107,0.0,2.0,73,0.00,,,0.00,Wunderground v.1.15,2013-05-17 13:56:00,
2013-05-17 09:02:00,68.0,59.0,29.96,ESE,107,0.0,0.0,73,0.00,,,0.00,Wunderground v.1.15,2013-05-17 14:02:00,
2013-05-17 09:08:00,68.4,59.4,29.96,ESE,107,0.0,0.0,73,0.00,,,0.00,Wunderground v.1.15,2013-05-17 14:08:00,
2013-05-17 09:14:00,68.9,59.9,29.96,ESE,107,0.0,1.0,73,0.00,,,0.00,Wunderground v.1.15,2013-05-17 14:14:00,
2013-05-17 09:28:00,69.6,59.4,29.96,ESE,107,0.0,2.0,70,0.00,,,0.00,Wunderground v.1.15,2013-05-17 14:28:00,
2013-05-17 09:34:00,70.1,59.9,29.96,ESE,107,0.0,0.0,70,0.00,,,0.00,Wunderground v.1.15,2013-05-17 14:34:00,
2013-05-17 09:40:00,70.6,59.5,29.96,ESE,107,0.0,1.0,68,0.00,,,0.00,Wunderground v.1.15,2013-05-17 14:40:00,
2013-05-17 09:46:00,71.2,58.8,29.96,ESE,107,0.0,1.0,65,0.00,,,0.00,Wunderground v.1.15,2013-05-17 14:46:00,
2013-05-17 09:52:00,72.2,58.9,29.95,East,90,0.0,1.0,63,0.00,,,0.00,Wunderground v.1.15,2013-05-17 14:52:00,
2013-05-17 09:58:00,73.0,58.8,29.95,East,90,1.0,1.0,61,0.00,,,0.00,Wunderground v.1.15,2013-05-17 14:58:00,
2013-05-17 10:04:00,74.0,58.3,29.95,East,90,1.0,2.0,58,0.00,,,0.00,Wunderground v.1.15,2013-05-17 15:04:00,
2013-05-17 10:10:00,74.5,58.3,29.96,East,96,1.0,2.0,57,0.00,,,0.00,Wunderground v.1.15,2013-05-17 15:10:00,
2013-05-17 10:16:00,75.1,58.3,29.96,East,82,2.0,5.0,56,0.00,,,0.00,Wunderground v.1.15,2013-05-17 15:16:00,
2013-05-17 10:22:00,75.6,56.7,29.96,East,82,2.0,2.0,52,0.00,,,0.00,Wunderground v.1.15,2013-05-17 15:22:00,
2013-05-17 10:28:00,75.7,57.4,29.96,East,82,1.0,2.0,53,0.00,,,0.00,Wunderground v.1.15,2013-05-17 15:28:00,
2013-05-17 10:34:00,75.7,57.9,29.96,East,82,1.0,1.0,54,0.00,,,0.00,Wunderground v.1.15,2013-05-17 15:34:00,
2013-05-17 10:40:00,76.3,57.9,29.96,East,82,1.0,3.0,53,0.00,,,0.00,Wunderground v.1.15,2013-05-17 15:40:00,
2013-05-17 10:46:00,76.5,58.6,29.96,East,82,1.0,1.0,54,0.00,,,0.00,Wunderground v.1.15,2013-05-17 15:46:00,
2013-05-17 10:52:00,76.8,57.3,29.96,East,82,0.0,0.0,51,0.00,,,0.00,Wunderground v.1.15,2013-05-17 15:52:00,
2013-05-17 10:58:00,77.2,58.7,29.96,East,82,1.0,2.0,53,0.00,,,0.00,Wunderground v.1.15,2013-05-17 15:58:00,
2013-05-17 11:04:00,77.6,58.6,29.96,SE,127,1.0,2.0,52,0.00,,,0.00,Wunderground v.1.15,2013-05-17 16:04:00,
2013-05-17 11:10:00,77.6,58.0,29.96,SE,130,2.0,7.0,51,0.00,,,0.00,Wunderground v.1.15,2013-05-17 16:10:00,
2013-05-17 11:16:00,77.5,59.0,29.95,East,81,4.0,7.0,53,0.00,,,0.00,Wunderground v.1.15,2013-05-17 16:16:00,
2013-05-17 11:22:00,77.6,57.5,29.95,ENE,76,3.0,7.0,50,0.00,,,0.00,Wunderground v.1.15,2013-05-17 16:22:00,
2013-05-17 11:28:00,77.5,57.4,29.95,East,88,4.0,7.0,50,0.00,,,0.00,Wunderground v.1.15,2013-05-17 16:28:00,
2013-05-17 11:34:00,77.8,57.7,29.95,East,80,4.0,5.0,50,0.00,,,0.00,Wunderground v.1.15,2013-05-17 16:34:00,
2013-05-17 11:40:00,78.7,58.5,29.95,ENE,61,3.0,5.0,50,0.00,,,0.00,Wunderground v.1.15,2013-05-17 16:40:00,
2013-05-17 11:46:00,79.7,58.8,29.95,NE,51,1.0,2.0,49,0.00,,,0.00,Wunderground v.1.15,2013-05-17 16:46:00,
2013-05-17 11:52:00,79.4,59.1,29.95,ESE,113,2.0,2.0,50,0.00,,,0.00,Wunderground v.1.15,2013-05-17 16:52:00,
2013-05-17 11:58:00,79.0,59.3,29.95,SE,133,2.0,6.0,51,0.00,,,0.00,Wunderground v.1.15,2013-05-17 16:58:00,
2013-05-17 12:04:00,79.1,62.1,29.95,SSE,151,2.0,3.0,56,0.00,,,0.00,Wunderground v.1.15,2013-05-17 17:04:00,
2013-05-17 12:10:00,79.1,60.5,29.95,SE,144,1.0,3.0,53,0.00,,,0.00,Wunderground v.1.15,2013-05-17 17:10:00,
2013-05-17 12:16:00,79.3,59.6,29.94,ESE,103,2.0,7.0,51,0.00,,,0.00,Wunderground v.1.15,2013-05-17 17:16:00,
2013-05-17 12:22:00,78.9,60.3,29.94,SSE,153,3.0,3.0,53,0.00,,,0.00,Wunderground v.1.15,2013-05-17 17:22:00,
2013-05-17 12:28:00,79.3,61.2,29.94,SSE,149,2.0,3.0,54,0.00,,,0.00,Wunderground v.1.15,2013-05-17 17:28:00,
2013-05-17 12:34:00,79.5,59.8,29.94,SSE,151,1.0,2.0,51,0.00,,,0.00,Wunderground v.1.15,2013-05-17 17:34:00,
2013-05-17 12:40:00,79.9,60.7,29.94,SE,128,1.0,1.0,52,0.00,,,0.00,Wunderground v.1.15,2013-05-17 17:40:00,
2013-05-17 12:46:00,80.5,60.1,29.93,NE,50,2.0,6.0,50,0.00,,,0.00,Wunderground v.1.15,2013-05-17 17:46:00,
2013-05-17 12:52:00,81.0,61.7,29.93,SE,132,3.0,3.0,52,0.00,,,0.00,Wunderground v.1.15,2013-05-17 17:52:00,
2013-05-17 12:58:00,81.5,60.5,29.93,WSW,238,2.0,4.0,49,0.00,,,0.00,Wunderground v.1.15,2013-05-17 17:58:00,
2013-05-17 13:04:00,80.8,62.6,29.93,SW,234,2.0,2.0,54,0.00,,,0.00,Wunderground v.1.15,2013-05-17 18:04:00,
2013-05-17 13:10:00,80.6,60.2,29.93,East,100,2.0,5.0,50,0.00,,,0.00,Wunderground v.1.15,2013-05-17 18:10:00,
2013-05-17 13:16:00,80.6,61.3,29.93,ESE,123,3.0,5.0,52,0.00,,,0.00,Wunderground v.1.15,2013-05-17 18:16:00,
2013-05-17 13:22:00,80.2,64.6,29.92,SSW,195,2.0,3.0,59,0.00,,,0.00,Wunderground v.1.15,2013-05-17 18:22:00,
2013-05-17 13:28:00,79.9,63.3,29.92,South,188,1.0,3.0,57,0.00,,,0.00,Wunderground v.1.15,2013-05-17 18:28:00,
2013-05-17 13:34:00,79.5,61.9,29.92,South,171,2.0,3.0,55,0.00,,,0.00,Wunderground v.1.15,2013-05-17 18:34:00,
2013-05-17 13:40:00,79.3,60.7,29.92,SE,130,2.0,3.0,53,0.00,,,0.00,Wunderground v.1.15,2013-05-17 18:40:00,
2013-05-17 13:46:00,79.9,64.8,29.92,ESE,113,2.0,7.0,60,0.00,,,0.00,Wunderground v.1.15,2013-05-17 18:46:00,
2013-05-17 13:52:00,80.0,61.3,29.92,ESE,117,2.0,3.0,53,0.00,,,0.00,Wunderground v.1.15,2013-05-17 18:52:00,
2013-05-17 13:58:00,79.6,61.5,29.92,SE,132,2.0,4.0,54,0.00,,,0.00,Wunderground v.1.15,2013-05-17 18:58:00,
2013-05-17 14:04:00,79.2,63.1,29.92,SE,132,1.0,1.0,58,0.00,,,0.00,Wunderground v.1.15,2013-05-17 19:04:00,
2013-05-17 14:10:00,78.7,59.6,29.92,SE,132,1.0,1.0,52,0.00,,,0.00,Wunderground v.1.15,2013-05-17 19:10:00,
2013-05-17 14:16:00,78.6,60.6,29.91,SE,132,1.0,1.0,54,0.00,,,0.00,Wunderground v.1.15,2013-05-17 19:16:00,
2013-05-17 14:22:00,78.4,60.4,29.91,SE,132,0.0,0.0,54,0.00,,,0.00,Wunderground v.1.15,2013-05-17 19:22:00,
2013-05-17 14:28:00,78.2,61.2,29.92,SE,132,0.0,2.0,56,0.00,,,0.00,Wunderground v.1.15,2013-05-17 19:28:00,
2013-05-17 14:34:00,77.6,62.6,29.92,SSW,207,1.0,2.0,60,0.00,,,0.00,Wunderground v.1.15,2013-05-17 19:34:00,
2013-05-17 14:40:00,76.0,64.2,29.93,SSW,202,3.0,4.0,67,0.00,,,0.00,Wunderground v.1.15,2013-05-17 19:40:00,
2013-05-17 14:46:00,73.4,65.0,29.93,SSW,209,4.0,7.0,75,0.83,,,0.04,Wunderground v.1.15,2013-05-17 19:46:00,
2013-05-17 14:52:00,70.6,64.5,29.93,SSW,205,4.0,4.0,81,0.17,,,0.06,Wunderground v.1.15,2013-05-17 19:52:00,
2013-05-17 14:58:00,69.5,63.4,29.93,East,91,2.0,5.0,81,0.11,,,0.07,Wunderground v.1.15,2013-05-17 19:58:00,
2013-05-17 15:04:00,70.0,62.8,29.93,ENE,63,3.0,7.0,78,0.09,,,0.08,Wunderground v.1.15,2013-05-17 20:04:00,
2013-05-17 15:10:00,70.4,63.6,29.93,NE,54,4.0,7.0,79,0.05,,,0.08,Wunderground v.1.15,2013-05-17 20:10:00,
2013-05-17 15:16:00,70.4,63.6,29.93,WNW,301,2.0,4.0,79,0.04,,,0.08,Wunderground v.1.15,2013-05-17 20:16:00,
2013-05-17 15:22:00,70.3,64.2,29.92,WNW,300,2.0,3.0,81,0.00,,,0.08,Wunderground v.1.15,2013-05-17 20:22:00,
2013-05-17 15:28:00,70.5,64.7,29.92,NW,308,1.0,3.0,82,0.00,,,0.08,Wunderground v.1.15,2013-05-17 20:28:00,
2013-05-17 15:34:00,70.9,65.5,29.92,NW,308,1.0,1.0,83,0.00,,,0.08,Wunderground v.1.15,2013-05-17 20:34:00,
2013-05-17 15:40:00,71.4,66.0,29.92,NNE,30,1.0,2.0,83,0.00,,,0.08,Wunderground v.1.15,2013-05-17 20:40:00,
2013-05-17 15:46:00,71.6,65.8,29.92,NE,36,3.0,4.0,82,0.00,,,0.08,Wunderground v.1.15,2013-05-17 20:46:00,
2013-05-17 15:52:00,72.0,65.5,29.92,NE,38,4.0,6.0,80,0.00,,,0.08,Wunderground v.1.15,2013-05-17 20:52:00,
2013-05-17 15:58:00,72.4,65.2,29.92,NE,51,5.0,9.0,78,0.00,,,0.08,Wunderground v.1.15,2013-05-17 20:58:00,
2013-05-17 16:04:00,71.9,64.7,29.93,ENE,65,8.0,12.0,78,0.00,,,0.08,Wunderground v.1.15,2013-05-17 21:04:00,
2013-05-17 16:10:00,71.5,63.9,29.94,East,88,8.0,9.0,77,0.00,,,0.08,Wunderground v.1.15,2013-05-17 21:10:00,
2013-05-17 16:16:00,70.6,62.7,29.94,ENE,62,8.0,15.0,76,1.05,,,0.18,Wunderground v.1.15,2013-05-17 21:16:00,
2013-05-17 16:22:00,69.9,63.4,29.94,East,98,8.0,9.0,80,0.42,,,0.26,Wunderground v.1.15,2013-05-17 21:22:00,
2013-05-17 16:28:00,68.9,63.2,29.94,ENE,78,6.0,9.0,82,0.08,,,0.26,Wunderground v.1.15,2013-05-17 21:28:00,
2013-05-17 16:34:00,68.2,62.8,29.94,ESE,115,7.0,9.0,83,0.04,,,0.26,Wunderground v.1.15,2013-05-17 21:34:00,
2013-05-17 16:40:00,67.6,62.9,29.94,East,101,6.0,7.0,85,0.30,,,0.28,Wunderground v.1.15,2013-05-17 21:40:00,
2013-05-17 16:46:00,67.0,62.7,29.94,East,92,5.0,7.0,86,0.52,,,0.32,Wunderground v.1.15,2013-05-17 21:46:00,
2013-05-17 16:52:00,66.8,62.8,29.94,ESE,104,6.0,6.0,87,0.27,,,0.35,Wunderground v.1.15,2013-05-17 21:52:00,
2013-05-17 16:58:00,66.5,62.8,29.94,East,96,7.0,9.0,88,0.12,,,0.36,Wunderground v.1.15,2013-05-17 21:58:00,
2013-05-17 17:04:00,66.4,63.1,29.93,East,91,7.0,7.0,89,0.06,,,0.37,Wunderground v.1.15,2013-05-17 22:04:00,
2013-05-17 17:10:00,66.6,63.3,29.93,East,79,7.0,10.0,89,0.06,,,0.37,Wunderground v.1.15,2013-05-17 22:10:00,
2013-05-17 17:16:00,66.9,63.9,29.93,ENE,71,9.0,10.0,90,0.05,,,0.37,Wunderground v.1.15,2013-05-17 22:16:00,
2013-05-17 17:22:00,67.1,64.4,29.93,ENE,66,10.0,11.0,91,0.00,,,0.37,Wunderground v.1.15,2013-05-17 22:22:00,
2013-05-17 17:28:00,67.0,64.3,29.92,ENE,65,11.0,14.0,91,0.00,,,0.37,Wunderground v.1.15,2013-05-17 22:28:00,
2013-05-17 17:34:00,67.0,64.3,29.92,ENE,76,13.0,14.0,91,0.00,,,0.37,Wunderground v.1.15,2013-05-17 22:34:00,
2013-05-17 17:40:00,67.1,64.7,29.92,ENE,74,13.0,16.0,92,0.00,,,0.37,Wunderground v.1.15,2013-05-17 22:40:00,
2013-05-17 17:46:00,66.6,63.6,29.92,ENE,77,14.0,15.0,90,0.00,,,0.37,Wunderground v.1.15,2013-05-17 22:46:00,
2013-05-17 17:52:00,66.6,63.6,29.92,East,83,14.0,14.0,90,0.00,,,0.38,Wunderground v.1.15,2013-05-17 22:52:00,
2013-05-17 17:58:00,67.0,64.0,29.92,ENE,78,13.0,14.0,90,0.00,,,0.38,Wunderground v.1.15,2013-05-17 22:58:00,
2013-05-17 18:04:00,67.2,63.8,29.92,East,96,12.0,14.0,89,0.00,,,0.38,Wunderground v.1.15,2013-05-17 23:04:00,
2013-05-17 18:10:00,67.2,63.8,29.92,East,90,11.0,14.0,89,0.00,,,0.38,Wunderground v.1.15,2013-05-17 23:10:00,
2013-05-17 18:16:00,66.9,63.2,29.92,East,88,9.0,11.0,88,0.00,,,0.38,Wunderground v.1.15,2013-05-17 23:16:00,
2013-05-17 18:22:00,66.5,62.8,29.92,East,94,9.0,9.0,88,0.00,,,0.38,Wunderground v.1.15,2013-05-17 23:22:00,
2013-05-17 18:28:00,66.2,62.2,29.92,East,92,9.0,13.0,87,0.00,,,0.38,Wunderground v.1.15,2013-05-17 23:28:00,
2013-05-17 18:34:00,66.2,62.2,29.92,East,82,10.0,10.0,87,0.00,,,0.38,Wunderground v.1.15,2013-05-17 23:34:00,
2013-05-17 18:40:00,66.3,62.0,29.92,East,93,11.0,14.0,86,0.00,,,0.38,Wunderground v.1.15,2013-05-17 23:40:00,
2013-05-17 18:46:00,66.1,61.5,29.93,East,89,11.0,16.0,85,0.00,,,0.38,Wunderground v.1.15,2013-05-17 23:46:00,
2013-05-17 18:52:00,65.8,60.8,29.93,East,96,12.0,12.0,84,0.00,,,0.38,Wunderground v.1.15,2013-05-17 23:52:00,
2013-05-17 18:58:00,65.6,61.0,29.93,East,96,12.0,13.0,85,0.00,,,0.38,Wunderground v.1.15,2013-05-17 23:58:00,
2013-05-17 19:04:00,65.6,61.0,29.94,East,95,11.0,17.0,85,0.00,,,0.38,Wunderground v.1.15,2013-05-18 00:04:00,
2013-05-17 19:10:00,65.4,60.8,29.94,East,82,12.0,17.0,85,0.00,,,0.38,Wunderground v.1.15,2013-05-18 00:10:00,
2013-05-17 19:16:00,65.3,61.0,29.94,East,88,12.0,13.0,86,0.00,,,0.38,Wunderground v.1.15,2013-05-18 00:16:00,
2013-05-17 19:22:00,65.1,60.8,29.94,East,90,11.0,11.0,86,0.00,,,0.38,Wunderground v.1.15,2013-05-18 00:22:00,
2013-05-17 19:28:00,65.0,60.7,29.94,East,89,10.0,11.0,86,0.00,,,0.38,Wunderground v.1.15,2013-05-18 00:28:00,
2013-05-17 19:34:00,64.9,60.6,29.95,East,85,10.0,10.0,86,0.00,,,0.38,Wunderground v.1.15,2013-05-18 00:34:00,
2013-05-17 19:40:00,64.9,60.9,29.95,ENE,76,10.0,13.0,87,0.00,,,0.38,Wunderground v.1.15,2013-05-18 00:40:00,
2013-05-17 19:46:00,64.8,60.8,29.95,East,90,10.0,11.0,87,0.00,,,0.38,Wunderground v.1.15,2013-05-18 00:46:00,
2013-05-17 19:52:00,64.9,60.6,29.95,East,81,10.0,11.0,86,0.00,,,0.38,Wunderground v.1.15,2013-05-18 00:52:00,
2013-05-17 19:58:00,64.9,60.6,29.95,ENE,78,11.0,16.0,86,0.00,,,0.38,Wunderground v.1.15,2013-05-18 00:58:00,
2013-05-17 20:04:00,65.1,60.8,29.95,East,80,12.0,14.0,86,0.00,,,0.38,Wunderground v.1.15,2013-05-18 01:04:00,
2013-05-17 20:10:00,65.2,60.6,29.95,East,91,12.0,18.0,85,0.00,,,0.38,Wunderground v.1.15,2013-05-18 01:10:00,
2013-05-17 20:16:00,65.4,60.8,29.95,East,98,13.0,18.0,85,0.00,,,0.38,Wunderground v.1.15,2013-05-18 01:16:00,
2013-05-17 20:22:00,65.4,60.1,29.95,East,101,13.0,14.0,83,0.00,,,0.38,Wunderground v.1.15,2013-05-18 01:22:00,
2013-05-17 20:28:00,65.2,59.2,29.95,East,80,13.0,15.0,81,0.00,,,0.38,Wunderground v.1.15,2013-05-18 01:28:00,
2013-05-17 20:34:00,65.0,59.0,29.95,ENE,77,13.0,14.0,81,0.00,,,0.38,Wunderground v.1.15,2013-05-18 01:34:00,
2013-05-17 20:40:00,64.8,58.8,29.95,East,84,13.0,13.0,81,0.00,,,0.38,Wunderground v.1.15,2013-05-18 01:40:00,
2013-05-17 20:46:00,64.4,58.8,29.95,East,79,11.0,13.0,82,0.00,,,0.38,Wunderground v.1.15,2013-05-18 01:46:00,
2013-05-17 20:52:00,64.2,58.6,29.96,ENE,76,12.0,12.0,82,0.00,,,0.38,Wunderground v.1.15,2013-05-18 01:52:00,
2013-05-17 20:58:00,64.0,58.4,29.96,ENE,76,11.0,12.0,82,0.00,,,0.38,Wunderground v.1.15,2013-05-18 01:58:00,
2013-05-17 21:04:00,63.8,58.5,29.96,ENE,71,10.0,11.0,83,0.00,,,0.38,Wunderground v.1.15,2013-05-18 02:04:00,
2013-05-17 21:10:00,63.5,58.2,29.96,ENE,74,10.0,11.0,83,0.00,,,0.38,Wunderground v.1.15,2013-05-18 02:10:00,
2013-05-17 21:16:00,63.2,58.3,29.96,ENE,73,9.0,10.0,84,0.00,,,0.38,Wunderground v.1.15,2013-05-18 02:16:00,
2013-05-17 21:22:00,63.1,58.2,29.96,East,80,9.0,9.0,84,0.00,,,0.38,Wunderground v.1.15,2013-05-18 02:22:00,
2013-05-17 21:28:00,63.2,57.6,29.97,East,81,11.0,12.0,82,0.00,,,0.38,Wunderground v.1.15,2013-05-18 02:28:00,
2013-05-17 21:34:00,63.1,57.5,29.97,East,86,11.0,13.0,82,0.00,,,0.38,Wunderground v.1.15,2013-05-18 02:34:00,
2013-05-17 21:40:00,63.1,57.5,29.97,East,79,10.0,13.0,82,0.00,,,0.38,Wunderground v.1.15,2013-05-18 02:40:00,
2013-05-17 21:46:00,62.9,57.0,29.97,East,81,9.0,10.0,81,0.00,,,0.38,Wunderground v.1.15,2013-05-18 02:46:00,
2013-05-17 21:52:00,62.9,56.6,29.97,East,82,9.0,10.0,80,0.00,,,0.38,Wunderground v.1.15,2013-05-18 02:52:00,
2013-05-17 21:58:00,62.8,56.5,29.97,ENE,70,8.0,10.0,80,0.00,,,0.38,Wunderground v.1.15,2013-05-18 02:58:00,
2013-05-17 22:04:00,62.7,56.4,29.97,ENE,76,8.0,9.0,80,0.00,,,0.38,Wunderground v.1.15,2013-05-18 03:04:00,
2013-05-17 22:10:00,62.5,56.2,29.97,ENE,67,7.0,9.0,80,0.00,,,0.38,Wunderground v.1.15,2013-05-18 03:10:00,
2013-05-17 22:16:00,62.2,56.0,29.97,ENE,73,6.0,7.0,80,0.00,,,0.38,Wunderground v.1.15,2013-05-18 03:16:00,
2013-05-17 22:22:00,62.1,55.5,29.97,ENE,72,5.0,5.0,79,0.00,,,0.38,Wunderground v.1.15,2013-05-18 03:22:00,
2013-05-17 22:28:00,62.0,55.4,29.97,East,80,4.0,5.0,79,0.00,,,0.38,Wunderground v.1.15,2013-05-18 03:28:00,
2013-05-17 22:34:00,62.1,55.5,29.98,ENE,74,3.0,5.0,79,0.00,,,0.38,Wunderground v.1.15,2013-05-18 03:34:00,
2013-05-17 22:40:00,62.0,55.1,29.98,East,90,3.0,5.0,78,0.00,,,0.38,Wunderground v.1.15,2013-05-18 03:40:00,
2013-05-17 22:46:00,61.8,54.9,29.98,East,94,3.0,5.0,78,0.00,,,0.38,Wunderground v.1.15,2013-05-18 03:46:00,
2013-05-17 22:52:00,61.6,54.7,29.98,East,94,3.0,3.0,78,0.00,,,0.38,Wunderground v.1.15,2013-05-18 03:52:00,
2013-05-17 22:58:00,61.5,54.9,29.98,East,94,2.0,3.0,79,0.00,,,0.38,Wunderground v.1.15,2013-05-18 03:58:00,
2013-05-17 23:02:00,61.4,55.2,29.98,East,95,2.0,2.0,80,0.00,,,0.38,Wunderground v.1.15,2013-05-18 04:02:00,
2013-05-17 23:04:00,61.3,55.1,29.97,East,95,2.0,2.0,80,0.00,,,0.38,Wunderground v.1.15,2013-05-18 04:04:00,
2013-05-17 23:10:00,61.1,54.9,29.97,East,95,1.0,1.0,80,0.00,,,0.38,Wunderground v.1.15,2013-05-18 04:10:00,
2013-05-17 23:12:00,61.0,55.1,29.97,East,95,1.0,1.0,81,0.00,,,0.38,Wunderground v.1.15,2013-05-18 04:12:00,
2013-05-17 23:14:00,61.0,55.1,29.97,East,95,1.0,1.0,81,0.00,,,0.38,Wunderground v.1.15,2013-05-18 04:14:00,
2013-05-17 23:20:00,60.8,55.3,29.97,East,95,0.0,0.0,82,0.00,,,0.38,Wunderground v.1.15,2013-05-18 04:20:00,
2013-05-17 23:26:00,60.5,55.3,29.97,East,95,0.0,1.0,83,0.00,,,0.38,Wunderground v.1.15,2013-05-18 04:26:00,
2013-05-17 23:32:00,60.4,55.2,29.97,East,95,1.0,2.0,83,0.00,,,0.38,Wunderground v.1.15,2013-05-18 04:32:00,
2013-05-17 23:38:00,60.2,55.3,29.96,East,95,1.0,2.0,84,0.00,,,0.38,Wunderground v.1.15,2013-05-18 04:38:00,
2013-05-17 23:44:00,60.0,55.5,29.96,East,95,0.0,1.0,85,0.00,,,0.38,Wunderground v.1.15,2013-05-18 04:44:00,
2013-05-17 23:50:00,59.7,55.5,29.96,East,95,0.0,0.0,86,0.00,,,0.38,Wunderground v.1.15,2013-05-18 04:50:00,
2013-05-17 23:56:00,59.3,55.1,29.96,East,95,1.0,2.0,86,0.00,,,0.38,Wunderground v.1.15,2013-05-18 04:56:00,